Regional Weather Roundup
Issued by NWS Charleston, SC

Current Version | Previous Version | Graphics & Text | Print | Product List | Glossary On
Versions: 1 2 3 4 5 6 7 8 9 10 11 12 13 14 15 16 17 18 19 20 21 22 23 24 25 26 27 28 29 30 31 32 33 34 35 36 37 38 39 40 41 42 43 44 45 46 47 48 49 50
000 ASUS42 KCHS 032013 RWRCHS REGIONAL WEATHER ROUNDUP NATIONAL WEATHER SERVICE CHARLESTON SC 400 PM EDT TUE MAY 03 2016 NOTE: "FAIR" INDICATES FEW OR NO CLOUDS BELOW 12,000 FEET WITH NO SIGNIFICANT WEATHER AND/OR OBSTRUCTIONS TO VISIBILITY. NOT ALL STATIONS ARE QUALITY CONTROLLED. USE DATA WITH CAUTION... ESPECIALLY DEWPOINT OBSERVATIONS. SCZ027-030-031-034>040-042>050-032100- ...SOUTHEAST SOUTH CAROLINA... CITY SKY/WX TMP DP RH WIND PRES REMARKS N CHARLESTON MOSUNNY 85 64 49 SW15G22 29.77F WATERFRONT PRK N/A 80 72 76 SW5 29.77F MOUNT PLEASANT FAIR 84 72 65 S10 29.77F JOHNS ISLAND MOCLDY 84 68 58 SW9G15 29.78F PINOPOLIS N/A 84 70 61 W7 29.70F MONCKS CORNER FAIR 82 59 44 SW6 29.77F SUMMERVILLE FAIR 88 64 45 SW6 29.78F BEAUFORT MCAS PTSUNNY 87 65 47 W13G22 29.79F BEAUFORT ARPT FAIR 88 63 42 SW13G18 29.79F HILTON HEAD IS NOT AVBL WALTERBORO PTCLDY 88 63 42 SW10 29.79F ALLENDALE FAIR 84 63 48 W7 29.78F ...SOUTHERN MIDLANDS AND PEE DEE... CITY SKY/WX TMP DP RH WIND PRES REMARKS GEORGETOWN FAIR 86 63 45 W15G23 29.77F KINGSTREE MOCLDY 82 63 51 SW8 29.76F ORANGEBURG PTSUNNY 83 64 52 NW9 29.78F BARNWELL MOCLDY 84 66 54 W8 29.79F AIKEN FAIR 79 63 57 SW12G18 29.83F MANNING FAIR 82 63 51 SW12 29.76F COLUMBIA PTSUNNY 84 64 50 SW9 29.76F SUMTER MOSUNNY 83 65 54 SW13 29.74F FLORENCE MOSUNNY 84 64 50 W9G21 29.75F MYRTLE BEACH PTSUNNY 79 66 65 S12 29.79F N MYRTLE BEACH CLOUDY 73 68 84 SE7 29.78F THUNDER $$ GAZ063-065-086>088-099>101-113>116-118-119-134>141-150-032100- ...SOUTHEAST GEORGIA... CITY SKY/WX TMP DP RH WIND PRES REMARKS SAVANNAH ARPT PTSUNNY 86 66 51 W8G18 29.80F HUNTER AAF MOSUNNY 88 69 54 W17 29.77F HX 92 FORT STEWART PTSUNNY 86 65 49 W12 29.79F STATESBORO PTSUNNY 88 70 55 W9 29.80F HX 93 SYLVANIA MOCLDY 87 68 53 W7G16 29.80F HX 90 CLAXTON FAIR 86 69 55 SW8G17 29.81F HX 90 ...CSRA...CENTRAL AND FAR SOUTHEAST GEORGIA... CITY SKY/WX TMP DP RH WIND PRES REMARKS THOMSON CLOUDY 82 67 60 W10G16 29.85F AUGUSTA-BUSH CLOUDY 72 67 84 SW12 29.79F AUGUSTA-DANIEL CLOUDY 77 64 64 S10G20 29.81F SWAINSBORO MOCLDY 82 63 51 W10 29.82F VIDALIA MOSUNNY 86 64 48 W10 29.81F EASTMAN FAIR 83 67 57 NW7 29.85F HAZLEHURST FAIR 87 63 44 SW9 29.81F ALMA PTSUNNY 83 68 60 SW5 29.82F WAYCROSS CLOUDY 84 67 56 NW9 29.83F JESUP FAIR 88 72 58 W9G16 29.83F HX 94 BAXLEY PTSUNNY 86 64 48 W6 29.82F BRUNSWICK MOSUNNY 90 66 45 W8 29.82F HX 92 SAINT SIMONS PTSUNNY 85 65 51 W8 29.82F $$ SCZ027-028-034-036>038-045-046-048>050-GAZ119-141-032100- ...LAKE AND SUPPLEMENTAL COASTAL OBSERVATIONS... STATION/POSITION TIME TEMP WIND PRES WAVE SWELL AIR SEA DIR/SP/G HT/PER HT/PER/DIR (UTC) (F) (DEG/KT/KT) (MB) (FT/S) (FT/S/D) WINYAH BAY NOT AVBL LAKE MURRAY 1900 79 270/ 10/ 16 1008.5F ACE BASIN NERRS NOT AVBL FORT PULASKI 1900 82 75 270/ 10/ 12 1010.2F SAPELO ISLAND 1900 84 260/ 11 1010.0F $$ ANZ835-935-AMZ111-154-330-350-352-354-370-450-454-472-032100- ...C-MAN AND BUOY OBSERVATIONS... STATION/POSITION TIME TEMP WIND PRES WAVE SWELL AIR SEA DIR/SP/G HT/PER HT/PER/DIR (UTC) (F) (DEG/KT/KT) (MB) (FT/S) (FT/S/D) BUOY 41004 1950 75 75 200/ 16/ 17 1008.3F 5/ 6 2/ 8 BUOY 41008 NOT AVBL FOLLY BEACH CMAN 2000 76 210/ 15/ 17 1008.6F CAPERS NEARSHORE 1908 75 74 190/ 12/ 16 1009.0F FRIPP NEARSHORE 1908 76 74 200/ 10/ 14 1009.0F STATION/POSITION TIME TEMP WIND PRES WAVE SWELL AIR SEA DIR/SP/G HT/PER HT/PER/DIR (UTC) (F) (DEG/KT/KT) (MB) (FT/S) (FT/S/D) 5E ST. MARYS GA 1921 74 N/A 3/ 6 FRYING PAN BUOY 1900 74 73 170/ 8/ 10 1009.1F BUOY 41025 1950 71 71 200/ 16/ 19 1008.8F 4/ 7 2/190/ 7 CAPE LOOKOUT NC 2000 69 190/ 13/ 16 1008.5F BUOY 41002 1950 74 74 180/ 16/ 19 1013.1F 4/ 6 2/ 70/ 9 BUOY 41010 1920 78 78 220/ 10/ 12 1013.2S ST AUGUSTINE FL 2000 76 71 100/ 12/ 13 1011.2F $$

USA.gov is the U.S. government's official web portal to all federal, state and local government web resources and services.